FW4036 Weather Reports


Display with metric or nautical units.
time (UTC)temp
F
wind
direction
speed
MPH
gust
MPH
rain 1hr
in
rain 24hr
in
rain mn
in
humidity
%
barometer
mb
20260509201005 72 200 0.0 1.0 0.00 0.00 0.00 58 1005.4
20260509200503 72 179 0.0 4.0 0.00 0.00 0.00 55 1005.5
20260509200003 72 215 0.0 4.0 0.00 0.00 0.00 56 1005.5
20260509195503 72 192 0.0 2.0 0.00 0.00 0.00 53 1005.4
20260509195100 71 198 0.0 2.0 0.00 0.00 0.00 58 1005.4
20260509194600 71 196 0.0 2.0 0.00 0.00 0.00 58 1005.5
20260509194102 69 167 0.0 1.0 0.00 0.00 0.00 57 1005.5
20260509193558 70 167 0.0 1.0 0.00 0.00 0.00 57 1005.6
20260509193101 70 184 0.0 2.0 0.00 0.00 0.00 60 1005.5
20260509192559 70 170 0.0 2.0 0.00 0.00 0.00 56 1005.5
20260509192100 71 130 0.0 2.0 0.00 0.00 0.00 59 1005.6
20260509191558 70 175 0.0 1.0 0.00 0.00 0.00 59 1005.7
20260509191057 70 153 0.0 0.0 0.00 0.00 0.00 60 1005.9
20260509190557 70 150 0.0 2.0 0.00 0.00 0.00 59 1006.0
20260509190108 69 172 0.0 2.0 0.00 0.00 0.00 61 1006.1
20260509185552 69 171 0.0 0.0 0.00 0.00 0.00 58 1006.1
20260509185051 69 194 0.0 1.0 0.00 0.00 0.00 60 1006.2
20260509184556 68 148 0.0 1.0 0.00 0.00 0.00 60 1006.3
20260509184051 68 160 0.0 0.0 0.00 0.00 0.00 58 1006.3
20260509183551 68 46 0.0 0.0 0.00 0.00 0.00 60 1006.3
20260509183051 68 101 0.0 0.0 0.00 0.00 0.00 59 1006.0
20260509182548 68 105 0.0 0.0 0.00 0.00 0.00 61 1006.3
20260509182048 68 125 0.0 1.0 0.00 0.00 0.00 61 1006.5
20260509181549 67 115 0.0 1.0 0.00 0.00 0.00 59 1006.6
20260509181046 67 92 0.0 0.0 0.00 0.00 0.00 57 1006.6
20260509180547 66 33 0.0 0.0 0.00 0.00 0.00 59 1006.8
20260509180045 67 101 0.0 0.0 0.00 0.00 0.00 57 1007.1
20260509175542 66 136 0.0 1.0 0.00 0.00 0.00 57 1007.1
20260509175042 66 116 0.0 0.0 0.00 0.00 0.00 60 1007.1
20260509174540 65 114 0.0 0.0 0.00 0.00 0.00 59 1007.2
20260509174042 65 120 0.0 0.0 0.00 0.00 0.00 60 1007.3
20260509173539 65 321 0.0 0.0 0.00 0.00 0.00 61 1007.4
20260509173039 65 321 0.0 0.0 0.00 0.00 0.00 58 1007.5
20260509172539 65 70 0.0 0.0 0.00 0.00 0.00 58 1007.6
20260509172039 65 67 0.0 0.0 0.00 0.00 0.00 59 1007.6
20260509171540 65 41 0.0 0.0 0.00 0.00 0.00 59 1007.6
20260509171037 65 133 0.0 0.0 0.00 0.00 0.00 57 1007.7
20260509170539 65 140 0.0 0.0 0.00 0.00 0.00 58 1007.8
20260509170042 65 160 0.0 0.0 0.00 0.00 0.00 57 1007.9
20260509165538 65 162 0.0 0.0 0.00 0.00 0.00 58 1007.8
20260509165037 64 163 0.0 0.0 0.00 0.00 0.00 58 1008.0
20260509164541 64 155 0.0 0.0 0.00 0.00 0.00 58 1007.9
20260509164037 64 107 0.0 0.0 0.00 0.00 0.00 57 1007.9
20260509163535 64 116 0.0 0.0 0.00 0.00 0.00 57 1007.8
20260509163053 64 115 0.0 0.0 0.00 0.00 0.00 56 1007.7
20260509162535 64 90 0.0 1.0 0.00 0.00 0.00 57 1007.6
20260509162036 65 125 0.0 2.0 0.00 0.00 0.00 58 1007.6
20260509161544 64 111 0.0 2.0 0.00 0.00 0.00 58 1007.6
20260509161033 63 107 0.0 4.0 0.00 0.00 0.00 58 1007.7
20260509160536 63 106 0.0 4.0 0.00 0.00 0.00 59 1007.7
20260509160031 63 107 0.0 1.0 0.00 0.00 0.00 63 1007.7
20260509155532 63 128 0.0 0.0 0.00 0.00 0.00 63 1007.8
20260509155030 63 128 0.0 0.0 0.00 0.00 0.00 62 1007.9
20260509154536 62 152 0.0 0.0 0.00 0.00 0.00 63 1007.8
20260509154028 62 163 0.0 0.0 0.00 0.00 0.00 62 1008.0
20260509153529 62 93 0.0 0.0 0.00 0.00 0.00 63 1008.1
20260509153028 61 85 0.0 0.0 0.00 0.00 0.00 63 1007.9
20260509152527 61 158 0.0 0.0 0.00 0.00 0.00 66 1008.1
20260509152027 61 101 0.0 1.0 0.00 0.00 0.00 64 1008.1
20260509151525 61 95 0.0 3.0 0.00 0.00 0.00 64 1007.9
20260509151024 60 144 0.0 2.0 0.00 0.00 0.00 65 1008.0
20260509150524 60 121 0.0 2.0 0.00 0.00 0.00 65 1008.1
20260509150024 60 98 0.0 1.0 0.00 0.00 0.00 65 1008.1
20260509145526 60 138 0.0 0.0 0.00 0.00 0.00 65 1008.1
20260509145027 59 120 0.0 0.0 0.00 0.00 0.00 65 1008.2
20260509144523 60 108 0.0 0.0 0.00 0.00 0.00 66 1008.2
20260509144023 60 94 0.0 0.0 0.00 0.00 0.00 67 1008.3
20260509143523 60 109 0.0 0.0 0.00 0.00 0.00 66 1008.3
20260509143031 60 121 0.0 0.0 0.00 0.00 0.00 67 1008.3
20260509142521 59 148 0.0 0.0 0.00 0.00 0.00 69 1008.4
20260509142019 58 157 0.0 0.0 0.00 0.00 0.00 67 1008.4
20260509141525 58 158 0.0 0.0 0.00 0.00 0.00 69 1008.5
20260509141017 58 158 0.0 1.0 0.00 0.00 0.00 68 1008.5
20260509140516 58 161 0.0 0.0 0.00 0.00 0.00 68 1008.5
20260509140015 58 166 0.0 3.0 0.00 0.00 0.00 68 1008.4
20260509135514 57 169 0.0 3.0 0.00 0.00 0.00 68 1008.3
20260509135015 57 169 0.0 0.0 0.00 0.00 0.00 67 1008.3
20260509134515 57 159 0.0 0.0 0.00 0.00 0.00 69 1008.1
20260509134014 57 117 0.0 0.0 0.00 0.00 0.00 69 1008.0
20260509133518 56 165 0.0 0.0 0.00 0.00 0.00 70 1008.0
20260509133014 56 165 0.0 1.0 0.00 0.00 0.00 68 1008.1
20260509132514 56 161 0.0 1.0 0.00 0.00 0.00 68 1008.3
20260509132014 56 175 0.0 1.0 0.00 0.00 0.00 69 1008.4
20260509131512 56 190 0.0 1.0 0.00 0.00 0.00 69 1008.4
20260509131012 56 142 0.0 1.0 0.00 0.00 0.00 68 1008.5
20260509130518 57 142 0.0 1.0 0.00 0.00 0.00 68 1008.4
20260509130012 57 152 0.0 0.0 0.00 0.00 0.00 70 1008.4
20260509125521 56 169 0.0 0.0 0.00 0.00 0.00 69 1008.4
20260509125011 56 57 0.0 0.0 0.00 0.00 0.00 70 1008.2
20260509124514 56 148 0.0 0.0 0.00 0.00 0.00 69 1008.5
20260509124011 56 108 0.0 0.0 0.00 0.00 0.00 69 1008.5
20260509123511 56 155 0.0 0.0 0.00 0.00 0.00 68 1008.6
20260509123111 56 156 0.0 0.0 0.00 0.00 0.00 69 1008.5
20260509122516 56 212 0.0 0.0 0.00 0.00 0.00 69 1008.6
20260509122017 56 81 0.0 0.0 0.00 0.00 0.00 69 1008.2
20260509121509 56 188 0.0 0.0 0.00 0.00 0.00 69 1008.4
20260509121009 56 188 0.0 0.0 0.00 0.00 0.00 68 1008.3
20260509120509 56 188 0.0 0.0 0.00 0.00 0.00 70 1008.3
20260509120010 55 188 0.0 0.0 0.00 0.00 0.00 68 1008.4
20260509115510 55 189 0.0 0.0 0.00 0.00 0.00 69 1008.4
20260509115009 55 217 0.0 0.0 0.00 0.00 0.00 68 1008.3
20260509114521 55 236 0.0 0.0 0.00 0.00 0.00 68 1008.4
20260509114008 56 232 0.0 0.0 0.00 0.00 0.00 67 1008.3
20260509113507 55 230 0.0 0.0 0.00 0.00 0.00 64 1008.1
20260509113007 55 230 0.0 0.0 0.00 0.00 0.00 64 1007.9
20260509112506 56 229 0.0 0.0 0.00 0.00 0.00 64 1007.8
20260509112011 55 229 0.0 0.0 0.00 0.00 0.00 64 1007.7
20260509111506 55 225 0.0 0.0 0.00 0.00 0.00 64 1007.6
20260509111006 56 223 0.0 0.0 0.00 0.00 0.00 64 1007.6
20260509110506 56 239 0.0 0.0 0.00 0.00 0.00 63 1007.6
20260509110104 56 264 0.0 0.0 0.00 0.00 0.00 63 1007.6
20260509105505 56 252 0.0 0.0 0.00 0.00 0.00 62 1007.6
20260509105008 56 238 0.0 0.0 0.00 0.00 0.00 62 1007.6
20260509104504 56 237 0.0 0.0 0.00 0.00 0.00 62 1007.6
20260509104004 56 234 0.0 0.0 0.00 0.00 0.00 62 1007.6
20260509103504 56 231 0.0 1.0 0.00 0.00 0.00 61 1007.7
20260509103004 56 227 0.0 0.0 0.00 0.00 0.00 61 1007.7
20260509102503 56 229 0.0 2.0 0.00 0.00 0.00 60 1007.7
20260509102005 56 219 0.0 4.0 0.00 0.00 0.00 60 1007.7
20260509101505 56 222 0.0 2.0 0.00 0.00 0.00 60 1007.6
20260509101003 56 223 0.0 0.0 0.00 0.00 0.00 60 1007.6
20260509100502 56 234 0.0 1.0 0.00 0.00 0.00 60 1007.6
20260509100002 56 215 0.0 6.0 0.00 0.00 0.00 60 1007.7
20260509095505 56 219 1.0 6.0 0.00 0.00 0.00 61 1007.7
20260509095002 55 233 0.0 0.0 0.00 0.00 0.00 62 1007.7
20260509094502 55 224 0.0 0.0 0.00 0.00 0.00 63 1007.6
20260509094001 55 217 0.0 0.0 0.00 0.00 0.00 63 1007.6
20260509093501 54 176 0.0 0.0 0.00 0.00 0.00 64 1007.7
20260509093101 54 176 0.0 0.0 0.00 0.00 0.00 65 1007.7
20260509092600 54 176 0.0 0.0 0.00 0.00 0.00 65 1007.7
20260509092059 54 178 0.0 0.0 0.00 0.00 0.00 65 1007.8
20260509091601 54 170 0.0 0.0 0.00 0.00 0.00 65 1007.8
20260509091058 54 170 0.0 0.0 0.00 0.00 0.00 65 1007.8
20260509090558 54 170 0.0 0.0 0.00 0.00 0.00 64 1007.8
20260509090118 54 170 0.0 0.0 0.00 0.00 0.00 64 1007.8
20260509085556 54 171 0.0 0.0 0.00 0.00 0.00 64 1007.8
20260509085059 54 175 0.0 2.0 0.00 0.00 0.00 64 1007.9
20260509084600 55 169 0.0 2.0 0.00 0.00 0.00 64 1008.0
20260509084056 55 167 0.0 1.0 0.00 0.00 0.00 63 1007.9
20260509083555 55 167 0.0 0.0 0.00 0.00 0.00 63 1007.9
20260509083057 55 167 0.0 2.0 0.00 0.00 0.00 62 1007.9
20260509082554 55 168 0.0 1.0 0.00 0.00 0.00 62 1008.1
20260509082052 55 163 0.0 0.0 0.00 0.00 0.00 62 1008.1
20260509081551 56 160 0.0 0.0 0.00 0.00 0.00 61 1008.1
20260509081050 56 165 0.0 0.0 0.00 0.00 0.00 60 1008.1
20260509080551 57 167 0.0 0.0 0.00 0.00 0.00 58 1008.2
20260509080106 57 178 0.0 0.0 0.00 0.00 0.00 57 1008.1
20260509075550 57 165 0.0 0.0 0.00 0.00 0.00 57 1008.1
20260509075052 57 171 0.0 1.0 0.00 0.00 0.00 56 1008.1
20260509074551 57 180 0.0 2.0 0.00 0.00 0.00 56 1008.2
20260509074052 57 173 0.0 2.0 0.00 0.00 0.00 56 1008.2
20260509073549 57 200 0.0 1.0 0.00 0.00 0.00 56 1008.1
20260509073058 57 209 0.0 1.0 0.00 0.00 0.00 56 1008.2
20260509072549 57 209 0.0 1.0 0.00 0.00 0.00 56 1008.1
20260509072048 58 212 0.0 1.0 0.00 0.00 0.00 56 1008.2
20260509071549 58 229 0.0 3.0 0.00 0.00 0.00 56 1008.2
20260509071048 57 207 0.0 4.0 0.00 0.00 0.00 56 1008.2
20260509070548 57 221 0.0 1.0 0.00 0.00 0.00 56 1008.2
20260509070053 57 220 0.0 0.0 0.00 0.00 0.00 56 1008.2
20260509065546 57 212 0.0 1.0 0.00 0.00 0.00 56 1008.2
20260509065046 57 203 0.0 2.0 0.00 0.00 0.00 56 1008.3
20260509064546 57 218 0.0 2.0 0.00 0.00 0.00 57 1008.4
20260509064046 57 194 0.0 2.0 0.00 0.00 0.00 57 1008.3
20260509063545 57 209 0.0 7.0 0.00 0.00 0.00 57 1008.4
20260509063050 57 221 0.0 7.0 0.00 0.00 0.00 57 1008.4
20260509062547 57 223 0.0 0.0 0.00 0.00 0.00 58 1008.5
20260509062044 56 224 0.0 0.0 0.00 0.00 0.00 58 1008.5
20260509061544 56 242 0.0 0.0 0.00 0.00 0.00 59 1008.5
20260509061144 56 217 0.0 0.0 0.00 0.00 0.00 60 1008.5
20260509060544 56 228 0.0 0.0 0.00 0.00 0.00 60 1008.5
20260509060043 56 225 0.0 0.0 0.00 0.00 0.00 60 1008.5
20260509055541 56 250 0.0 1.0 0.00 0.00 0.00 60 1008.5
20260509055040 56 257 0.0 1.0 0.00 0.00 0.00 60 1008.7
20260509054542 57 262 0.0 0.0 0.00 0.00 0.00 59 1008.7
20260509054039 57 261 0.0 0.0 0.00 0.00 0.00 58 1008.8
20260509053538 57 216 0.0 0.0 0.00 0.00 0.00 57 1008.7
20260509053044 57 215 0.0 0.0 0.00 0.00 0.00 57 1008.7
20260509052537 57 221 0.0 4.0 0.00 0.00 0.00 56 1008.7
20260509052037 58 219 0.0 4.0 0.00 0.00 0.00 55 1008.8
20260509051540 58 227 1.0 4.0 0.00 0.00 0.00 56 1008.8
20260509051035 58 216 0.0 1.0 0.00 0.00 0.00 55 1008.7
20260509050535 58 197 0.0 2.0 0.00 0.00 0.00 55 1008.8
20260509050049 58 223 0.0 0.0 0.00 0.00 0.00 55 1008.8
20260509045535 58 217 0.0 2.0 0.00 0.00 0.00 54 1008.8
20260509045037 58 205 0.0 2.0 0.00 0.00 0.00 54 1008.7
20260509044536 58 197 0.0 2.0 0.00 0.00 0.00 54 1008.8
20260509044034 58 198 0.0 1.0 0.00 0.00 0.00 55 1008.8
20260509043533 58 217 0.0 0.0 0.00 0.00 0.00 55 1008.8
20260509043042 58 204 0.0 0.0 0.00 0.00 0.00 55 1008.8
20260509042532 58 217 0.0 0.0 0.00 0.00 0.00 55 1008.8
20260509042032 58 195 0.0 1.0 0.00 0.00 0.00 55 1008.8
20260509041531 58 188 0.0 1.0 0.00 0.00 0.00 55 1008.8
20260509041030 58 187 0.0 1.0 0.00 0.00 0.00 55 1008.9
20260509040532 58 190 0.0 2.0 0.00 0.00 0.00 55 1008.9
20260509040030 58 173 0.0 2.0 0.00 0.00 0.00 55 1008.9
20260509035529 58 180 0.0 2.0 0.00 0.00 0.00 55 1008.9
20260509035029 58 195 0.0 0.0 0.00 0.00 0.00 55 1008.9
20260509034528 58 173 0.0 0.0 0.00 0.00 0.00 56 1008.9
20260509034028 57 186 0.0 0.0 0.00 0.00 0.00 57 1008.9
20260509033529 57 175 0.0 0.0 0.00 0.00 0.00 57 1009.0
20260509033036 57 175 0.0 0.0 0.00 0.00 0.00 57 1009.0
20260509032529 57 175 0.0 0.0 0.00 0.00 0.00 56 1009.1
20260509032028 58 175 0.0 0.0 0.00 0.00 0.00 56 1009.1
20260509031531 58 175 0.0 0.0 0.00 0.00 0.00 55 1009.1
20260509031027 58 175 0.0 1.0 0.00 0.00 0.00 54 1009.1
20260509030527 58 175 0.0 2.0 0.00 0.00 0.00 55 1009.2
20260509030028 58 175 0.0 2.0 0.00 0.00 0.00 55 1009.1
20260509025527 58 164 0.0 0.0 0.00 0.00 0.00 55 1009.2
20260509025027 59 163 0.0 2.0 0.00 0.00 0.00 54 1009.2
20260509024529 59 165 0.0 2.0 0.00 0.00 0.00 54 1009.2
20260509024030 59 180 0.0 0.0 0.00 0.00 0.00 53 1009.3
20260509023527 59 178 0.0 0.0 0.00 0.00 0.00 55 1009.3
20260509023028 58 174 0.0 0.0 0.00 0.00 0.00 56 1009.3
20260509022526 58 170 0.0 0.0 0.00 0.00 0.00 56 1009.3
20260509022027 58 165 0.0 0.0 0.00 0.00 0.00 56 1009.3
20260509021526 58 160 0.0 0.0 0.00 0.00 0.00 56 1009.2
20260509021025 59 163 0.0 0.0 0.00 0.00 0.00 55 1009.2
20260509020525 59 164 0.0 0.0 0.00 0.00 0.00 55 1009.2
20260509020026 59 167 0.0 0.0 0.00 0.00 0.00 54 1009.2
20260509015525 60 170 0.0 0.0 0.00 0.00 0.00 53 1009.2
20260509015025 60 170 0.0 0.0 0.00 0.00 0.00 53 1009.2
20260509014528 60 170 0.0 0.0 0.00 0.00 0.00 52 1009.2
20260509014024 60 170 0.0 0.0 0.00 0.00 0.00 52 1009.2
20260509013524 60 174 0.0 0.0 0.00 0.00 0.00 53 1009.2
20260509013027 59 169 0.0 0.0 0.00 0.00 0.00 55 1009.1
20260509012524 59 169 0.0 0.0 0.00 0.00 0.00 56 1009.1
20260509012024 58 169 0.0 0.0 0.00 0.00 0.00 56 1009.2
20260509011524 58 169 0.0 0.0 0.00 0.00 0.00 58 1009.2
20260509011025 58 169 0.0 0.0 0.00 0.00 0.00 57 1009.1
20260509010527 59 169 0.0 0.0 0.00 0.00 0.00 57 1009.1
20260509010028 59 169 0.0 0.0 0.00 0.00 0.00 55 1009.0
20260509005524 59 169 0.0 0.0 0.00 0.00 0.00 55 1009.0
20260509005022 60 169 0.0 0.0 0.00 0.00 0.00 54 1009.0
20260509004522 61 169 0.0 0.0 0.00 0.00 0.00 52 1009.0
20260509004022 61 169 0.0 0.0 0.00 0.00 0.00 51 1008.9
20260509003526 62 169 0.0 0.0 0.00 0.00 0.00 50 1008.9
20260509003023 63 170 0.0 0.0 0.00 0.00 0.00 49 1008.9
20260509002522 63 170 0.0 0.0 0.00 0.00 0.00 48 1008.9
20260509002022 63 171 0.0 0.0 0.00 0.00 0.00 48 1008.9
20260509001522 63 171 0.0 0.0 0.00 0.00 0.00 47 1008.8
20260509001021 64 171 0.0 0.0 0.00 0.00 0.00 47 1008.9
20260509000521 64 171 0.0 0.0 0.00 0.00 0.00 47 1008.8
20260509000036 63 172 0.0 2.0 0.00 0.00 0.00 48 1008.7
20260508235521 63 169 0.0 1.0 0.00 0.00 0.00 51 1008.6
20260508235021 63 149 0.0 0.0 0.00 0.00 0.00 56 1008.6
20260508234520 63 149 0.0 0.0 0.00 0.00 0.00 52 1008.5
20260508234021 64 149 0.0 0.0 0.00 0.00 0.00 49 1008.5
20260508233522 64 149 0.0 0.0 0.00 0.00 0.00 47 1008.4
20260508233021 64 149 0.0 0.0 0.00 0.00 0.00 46 1008.5
20260508232520 64 149 0.0 0.0 0.00 0.00 0.00 46 1008.4
20260508232020 65 150 0.0 0.0 0.00 0.00 0.00 48 1008.4
20260508231520 65 165 0.0 0.0 0.00 0.00 0.00 47 1008.4
20260508231023 66 165 0.0 0.0 0.00 0.00 0.00 44 1008.4
20260508230520 66 176 0.0 0.0 0.00 0.00 0.00 42 1008.4
20260508230019 66 178 0.0 1.0 0.00 0.00 0.00 45 1008.4
20260508225520 66 178 0.0 1.0 0.00 0.00 0.00 45 1008.3
20260508225020 66 209 0.0 0.0 0.00 0.00 0.00 42 1008.3
20260508224539 67 209 0.0 0.0 0.00 0.00 0.00 39 1008.3
20260508224019 67 208 0.0 0.0 0.00 0.00 0.00 39 1008.3
20260508223519 67 201 0.0 0.0 0.00 0.00 0.00 39 1008.3
20260508223019 68 199 0.0 0.0 0.00 0.00 0.00 38 1008.2
20260508222518 68 210 0.0 0.0 0.00 0.00 0.00 40 1008.2
20260508222022 68 205 0.0 0.0 0.00 0.00 0.00 43 1008.1
20260508221518 68 205 0.0 0.0 0.00 0.00 0.00 43 1008.1
20260508221018 67 205 0.0 0.0 0.00 0.00 0.00 40 1008.2
20260508220519 67 205 0.0 0.0 0.00 0.00 0.00 40 1008.3
20260508220026 67 205 0.0 0.0 0.00 0.00 0.00 40 1008.3
20260508215516 67 205 0.0 0.0 0.00 0.00 0.00 40 1008.4
20260508215018 67 205 0.0 0.0 0.00 0.00 0.00 39 1008.4
20260508214522 68 204 0.0 0.0 0.00 0.00 0.00 43 1008.4
20260508214016 68 204 0.0 0.0 0.00 0.00 0.00 37 1008.4
20260508213516 69 207 0.0 0.0 0.00 0.00 0.00 38 1008.4
20260508213028 69 157 0.0 1.0 0.00 0.00 0.00 36 1008.3
20260508212516 70 236 0.0 3.0 0.00 0.00 0.00 37 1008.4
20260508212015 70 229 0.0 3.0 0.00 0.00 0.00 39 1008.3
20260508211521 71 231 0.0 2.0 0.00 0.00 0.00 35 1008.3
20260508211013 71 281 0.0 1.0 0.00 0.00 0.00 36 1008.3
20260508210513 70 316 0.0 4.0 0.00 0.00 0.00 40 1008.4
20260508210016 69 245 1.0 4.0 0.00 0.00 0.00 35 1008.4
20260508205512 70 238 0.0 3.0 0.00 0.00 0.00 35 1008.4
20260508205015 71 164 0.0 3.0 0.00 0.00 0.00 34 1008.4
20260508204510 70 165 0.0 3.0 0.00 0.00 0.00 39 1008.5
20260508204009 70 139 0.0 0.0 0.00 0.00 0.00 38 1008.5
20260508203514 68 204 0.0 3.0 0.00 0.00 0.00 38 1008.6
20260508203011 69 209 0.0 5.0 0.00 0.00 0.00 36 1008.6
20260508202510 67 217 0.0 5.0 0.00 0.00 0.00 37 1008.6
20260508202007 66 229 0.0 3.0 0.00 0.00 0.00 42 1008.7
20260508201508 66 219 0.0 6.0 0.00 0.00 0.00 38 1008.8